Tracking 19192 objects as of 21-Jun-2018
HD Live streaming from Space Station
objects crossing your sky now

SL-12 R/B(2)

Track SL-12 R/B(2) now!
10-day predictions
SL-12 R/B(2) is classified as:


NORAD ID: 15772
Int'l Code: 1985-042D
Perigee: 802.5 km
Apogee: 854.2 km
Inclination: 71.1 °
Period: 101.3 minutes
Semi major axis: 7199 km
RCS: 14.3806 m2 (large)
Launch date: May 30, 1985
Source: Commonwealth of Independent States (former USSR) (CIS)
Launch site: TYURATAM MISSILE AND SPACE COMPLEX (TTMTR)

Note: This is a ROCKET BODY
aabbcc
Your satellite tracking list
Your tracking list is empty




NASA's NSSDC Master Catalog

Two Line Element Set (TLE):
1 15772U 85042D   18171.74658399 -.00000088 +00000-0 -18476-4 0  9998
2 15772 071.1090 278.0345 0035885 193.4214 318.5831 14.21229746713811
Source of the keplerian elements: AFSPC